Location: ??
(35.5653°N, 139.6194°E)
Time: 13:43:51
(UTC+00:00)

Cosmos 1484 Rocket - Pass Details

Date: 20 November 2019
Orbit: 507 x 559 km, 97.4° (Epoch: 13 December)

Event Time Altitude Azimuth Distance (km) Brightness Sun altitude
Rises 19:28:21 0° 15° (NNE) 2,750 6.5 -23.0°
Reaches altitude 10° 19:30:31 10° 19° (NNE) 1,851 5.6 -22.6°
Maximum altitude 19:34:29 61° 100° (E) 634 3.3 -21.8°
Drops below altitude 10° 19:38:25 10° 181° (S) 1,830 5.6 -21.0°
Sets 19:40:33 0° 185° (S) 2,715 6.4 -20.6°
